User: anonymous   Login
Location: Unspecified
(0.0000°N, 0.0000°E)
Time: 19:49:10
(UTC+00:00)
Language:

ANNA 1B - Orbit

View from above orbital plane
View from above orbital plane
View from above satellite
View from above satellite

Ground track
Ground track

The orbit data is extracted from the following two-line orbital elements,

1   446U 62060A   17268.70739758 -.00000102 +00000-0 +45009-4 0  9994
2   446 050.1440 351.6337 0070153 278.0507 216.2637 13.35260113677971
Epoch (UTC): 25 September 2017 16:58:39
Eccentricity: 0.0070153
inclination: 50.1440°
perigee height: 1074 km
apogee height: 1179 km
right ascension of ascending node: 351.6337°
argument of perigee: 278.0507°
revolutions per day: 13.35260113
mean anomaly at epoch: 216.2637°
orbit number at epoch: 67797

The dashed part of the orbit path shows where the satellite is in the earth's shadow,  

DLR